[[{"header":{"parameterUnit":"m.s-1","parameterCategory":1,"la1":30.2991,"la2":30.254,"lo1":-89.0895,"lo2":-89.0444,"dy":0.0017,"dx":0.0017,"nx":28,"ny":28,"refTime":"2023-07-18T03:00:00:Z","depth":0,"parameterNumber":2,"parameterNumberName":"U-component_of_WINDS"},"data":[0,0,0,0,0,0,0,0,0,0,0,0,0,0,0,0,0,0,0,0,0,0,0,0,0,0,0,0,0,0,0,0,0,0,0,0,0,0,0,0,0,0,0,0,0,0,0,0,0,0,0,0,0,0,0,0,0,0,1.765,1.765,0,1.768,1.768,1.768,1.7637,1.7635,1.7633,1.7632,1.7665,1.7667,1.7669,0,0,0,0,0,0,0,0,0,0,0,0,0,1.7554,1.7556,1.765,1.765,1.765,1.768,1.768,1.768,1.7637,1.7635,1.7633,1.7631,1.7664,1.7667,1.7669,0,0,0,0,0,0,0,0,0,0,0,0,0,1.7591,1.7557,1.765,1.7632,1.7631,1.768,1.768,1.7681,1.7637,1.7635,1.7633,1.763,1.7663,1.7666,1.767,1.7738,0,0,1.768,1.7682,0,0,0,0,0,0,0,0,1.7589,1.7595,1.7634,1.7633,1.7632,1.7652,1.7658,1.77,1.7638,1.7635,1.7632,1.7629,1.7662,1.7666,1.7677,1.7739,1.7741,1.7681,1.7683,1.7684,1.7685,0,0,0,0,0,0,0,1.7587,1.7593,1.7662,1.7635,1.7634,1.7623,1.7625,1.7666,1.7661,1.7635,1.7632,1.7636,1.7661,1.7673,1.7677,1.7741,1.7681,1.7684,1.7686,1.7687,1.7858,1.786,0,0,0,0,0,0,1.7586,1.7591,1.7661,1.7662,1.7604,1.7626,1.7629,1.7648,1.7661,1.766,1.7638,1.7634,1.7669,1.7673,1.7678,1.7756,1.7684,1.7688,1.769,1.7856,1.7858,1.7861,0,0,0,0,0,0,1.7584,1.7593,1.7659,1.7626,1.7634,1.763,1.7652,1.765,1.7662,1.7663,1.7662,1.7651,1.7667,1.7673,1.7722,1.7757,1.7689,1.7692,1.7853,1.7856,1.786,1.7915,0,0,0,0,0,0,1.7582,1.7592,1.7618,1.7627,1.7636,1.7704,1.7654,1.7652,1.7668,1.7662,1.7675,1.7675,1.7666,1.7717,1.7726,1.776,1.7695,1.785,1.7854,1.7859,1.791,1.792,1.7928,0,0,0,0,0,1.7578,1.7634,1.762,1.7628,1.7668,1.7706,1.7711,1.7698,1.7671,1.7696,1.7697,1.7674,1.7752,1.7723,1.7732,1.7768,1.7847,1.7853,1.7858,1.7906,1.7918,1.7928,0,0,0,0,0,0,1.7631,1.7635,1.7619,1.7679,1.7692,1.7698,1.773,1.7712,1.7734,1.7728,1.7713,1.7716,1.7768,1.7773,1.7741,1.7833,1.7795,1.7803,1.7828,1.7839,1.7848,1.7846,1.7698,0,0,0,0,0,1.7649,1.7679,1.7681,1.7733,1.774,1.7734,1.775,1.7739,1.7753,1.7758,1.7762,1.7776,1.7803,1.7822,1.7847,1.791,1.7911,1.7939,1.7949,1.7956,1.7963,1.7994,1.8006,1.7879,1.7879,1.7879,0,0,1.7687,1.7693,1.7713,1.7744,1.7752,1.7783,1.7739,1.7775,1.7797,1.7764,1.781,1.7813,1.7828,1.7883,1.7908,1.7889,1.7998,1.7963,1.7969,1.7972,1.8001,1.8013,1.8024,1.7883,1.7882,1.7882,0,0,1.7772,1.7781,1.7824,1.7833,1.7846,1.7841,1.7852,1.786,1.786,1.7906,1.7881,1.7908,1.7956,1.7966,1.7978,1.8064,1.8044,1.8073,1.8121,1.8152,1.8162,1.817,1.8199,1.821,1.8079,1.808,1.808,0,1.7819,1.7864,1.7849,1.7884,1.7898,1.7868,1.791,1.792,1.7942,1.7952,1.793,1.7987,1.7995,1.8052,1.8072,1.8083,1.8094,1.8071,1.8161,1.817,1.8178,1.8205,1.8216,1.8083,1.8082,1.8082,1.8082,0,1.7919,1.795,1.7983,1.8003,1.802,1.806,1.805,1.8069,1.8056,1.8053,1.8099,1.8107,1.8132,1.8145,1.8134,1.82,1.8187,1.8164,1.8125,1.8193,1.8219,1.8229,1.8088,1.8086,1.8085,1.8085,0,0,1.8039,1.8047,1.8059,1.8067,1.8078,1.8102,1.814,1.8163,1.8179,1.8194,1.8224,1.8264,1.8242,1.8255,1.8244,1.8271,1.8336,1.8244,1.8244,1.826,1.8407,1.8423,1.8436,1.8323,1.8325,1.8327,1.8405,0,1.8122,1.8185,1.8171,1.8234,1.8262,1.8232,1.8264,1.8275,1.8273,1.8296,1.8294,1.8322,1.8291,1.8298,1.8324,1.8323,1.8366,1.8318,1.835,1.8352,1.8346,1.8449,1.8468,1.8541,1.8415,1.8417,1.8418,0,1.8228,1.8245,1.8309,1.8314,1.8325,1.8354,1.8373,1.8396,1.8406,1.8403,1.8416,1.84,1.8436,1.8397,1.8446,1.8413,1.8426,1.8427,1.843,1.8432,1.8388,1.8453,1.8564,1.8575,1.8434,1.8433,1.8431,0,1.8306,1.8346,1.8388,1.8396,1.8403,1.8423,1.8427,1.8435,1.8449,1.8466,1.8475,1.8496,1.8508,1.8524,1.8514,1.8487,1.8564,1.8524,1.8561,1.8561,1.8578,1.8577,1.8692,1.8589,1.8588,1.8588,1.8588,0,1.84,1.844,1.8423,1.845,1.8493,1.8477,1.8521,1.8521,1.8528,1.8554,1.853,1.8555,1.854,1.8563,1.8555,1.8595,1.8601,1.8599,1.8596,1.86,1.86,1.8608,1.8602,1.8591,1.859,1.859,1.8589,0,1.8494,1.8485,1.853,1.8531,1.8533,1.8565,1.8566,1.859,1.8586,1.8618,1.8625,1.8618,1.8644,1.8635,1.8663,1.8658,1.8709,1.87,1.8705,1.8702,1.8738,1.8734,1.8861,1.8876,1.8764,1.8766,1.8766,0,1.8554,1.8584,1.8588,1.8603,1.8608,1.8633,1.8646,1.8631,1.8646,1.8658,1.8681,1.8704,1.8722,1.8764,1.8762,1.8783,1.8774,1.8816,1.8777,1.8779,1.8772,1.877,1.8772,1.8824,1.8826,1.8827,1.8827,0,1.866,1.8654,1.8674,1.8691,1.8708,1.8721,1.8733,1.8747,1.8732,1.875,1.8775,1.8788,1.8816,1.8839,1.8857,1.8861,1.8841,1.884,1.8849,1.8853,1.8854,1.8852,1.8725,1.8837,1.8836,1.8835,1.8835,1.8834,1.8738,1.8762,1.8768,1.8791,1.8797,1.8808,1.883,1.8827,1.8848,1.8868,1.8858,1.8886,1.8894,1.8916,1.8923,1.8945,1.8928,1.8942,1.8945,1.8949,1.8952,1.8851,1.8948,1.8948,1.8948,1.8948,1.8947,0,1.8842,1.8843,1.8864,1.888,1.8897,1.8876,1.8887,1.8903,1.8928,1.8937,1.8954,1.8982,1.9004,1.9002,1.9022,1.904,1.9031,1.9045,1.9043,1.9044,1.8967,1.8956,1.9052,1.9052,1.9052,1.9052,1.9052,1.9052,1.8897,1.8936,1.893,1.8971,1.8973,1.9,1.9007,1.9017,1.9023,1.9055,1.9072,1.9071,1.9075,1.9094,1.9113,1.9112,1.912,1.9137,1.9133,1.906,1.905,1.904,1.903,1.9139,1.9139,1.9207,1.9208,1.9209]},{"header":{"parameterUnit":"m.s-1","parameterCategory":1,"la1":30.2991,"la2":30.254,"lo1":-89.0895,"lo2":-89.0444,"dy":0.0017,"dx":0.0017,"nx":28,"ny":28,"refTime":"2023-07-18T03:00:00:Z","depth":0,"parameterNumber":3,"parameterNumberName":"V-component_of_WINDS"},"data":[0,0,0,0,0,0,0,0,0,0,0,0,0,0,0,0,0,0,0,0,0,0,0,0,0,0,0,0,0,0,0,0,0,0,0,0,0,0,0,0,0,0,0,0,0,0,0,0,0,0,0,0,0,0,0,0,0,0,4.4671,4.4671,0,4.4683,4.4683,4.4683,4.4619,4.4617,4.4616,4.4614,4.4624,4.4626,4.4628,0,0,0,0,0,0,0,0,0,0,0,0,0,4.4589,4.4591,4.4671,4.4671,4.4671,4.4683,4.4683,4.4683,4.462,4.4617,4.4615,4.4613,4.4623,4.4626,4.4628,0,0,0,0,0,0,0,0,0,0,0,0,0,4.4615,4.4592,4.4671,4.4641,4.4638,4.4683,4.4683,4.4683,4.462,4.4617,4.4615,4.4612,4.4623,4.4625,4.4628,4.4702,0,0,4.4637,4.4639,0,0,0,0,0,0,0,0,4.4614,4.4618,4.4645,4.4643,4.464,4.4647,4.4658,4.4689,4.4621,4.4627,4.4614,4.4611,4.4634,4.4635,4.4644,4.4702,4.4702,4.4638,4.4639,4.4641,4.4642,0,0,0,0,0,0,0,4.4612,4.4617,4.4675,4.4645,4.4643,4.4626,4.4626,4.4664,4.4645,4.4626,4.4622,4.4624,4.4632,4.4641,4.4643,4.4703,4.4638,4.464,4.4642,4.4643,4.482,4.4823,0,0,0,0,0,0,4.4615,4.4616,4.4675,4.4676,4.462,4.4629,4.463,4.4647,4.4645,4.4642,4.4626,4.4621,4.4637,4.464,4.4644,4.4728,4.4641,4.4643,4.4645,4.4817,4.4821,4.4824,0,0,0,0,0,0,4.4613,4.4621,4.4675,4.4645,4.465,4.4634,4.4654,4.4649,4.4658,4.4645,4.4641,4.4639,4.4635,4.4639,4.4688,4.4728,4.4645,4.4647,4.4814,4.4819,4.4823,4.4899,0,0,0,0,0,0,4.4611,4.462,4.4649,4.4646,4.4652,4.4719,4.4656,4.4651,4.4664,4.4657,4.4656,4.4653,4.4633,4.4683,4.4691,4.473,4.465,4.481,4.4816,4.4821,4.4892,4.4905,4.4916,0,0,0,0,0,4.4608,4.4669,4.4651,4.4658,4.4688,4.4722,4.4725,4.4702,4.4668,4.4695,4.4687,4.4653,4.4723,4.4689,4.4696,4.4737,4.4808,4.4814,4.4821,4.4887,4.4902,4.4916,0,0,0,0,0,0,4.4676,4.4668,4.4647,4.471,4.4717,4.4711,4.4745,4.4719,4.4736,4.4728,4.4698,4.4698,4.4751,4.4749,4.4712,4.4808,4.4759,4.4767,4.4807,4.4821,4.4833,4.4831,4.4652,0,0,0,0,0,4.4699,4.4728,4.4719,4.4775,4.478,4.4762,4.4776,4.4758,4.4763,4.4766,4.4761,4.4767,4.479,4.4806,4.4826,4.4892,4.489,4.4924,4.4936,4.4946,4.4953,4.4986,4.5001,4.4846,4.4846,4.4846,0,0,4.4745,4.4744,4.4764,4.4788,4.4792,4.4822,4.4765,4.4799,4.4821,4.4771,4.4816,4.4813,4.4818,4.4875,4.49,4.4875,4.4995,4.4954,4.4962,4.4964,4.4994,4.5009,4.5022,4.485,4.485,4.4849,0,0,4.4844,4.4847,4.4893,4.4898,4.4904,4.4892,4.4903,4.4902,4.4898,4.4943,4.4905,4.493,4.4971,4.4976,4.4983,4.5085,4.5054,4.5092,4.5153,4.5186,4.5198,4.5209,4.5243,4.5256,4.51,4.51,4.51,0,4.49,4.4944,4.492,4.4956,4.4967,4.4925,4.497,4.4976,4.4989,4.4997,4.4969,4.5019,4.5019,4.5076,4.5101,4.5109,4.512,4.5091,4.5198,4.5209,4.5218,4.5251,4.5264,4.5104,4.5104,4.5103,4.5103,0,4.5012,4.5044,4.508,4.5094,4.5109,4.515,4.5131,4.5149,4.513,4.512,4.5166,4.5165,4.5184,4.5197,4.5178,4.5251,4.5235,4.5204,4.5154,4.5238,4.5268,4.5281,4.5111,4.5109,4.5108,4.5107,0,0,4.5153,4.5153,4.5167,4.5172,4.5176,4.5199,4.5238,4.5258,4.5274,4.5284,4.5315,4.535,4.5321,4.533,4.5311,4.534,4.5419,4.5305,4.5304,4.5325,4.5498,4.5521,4.5536,4.54,4.5402,4.5404,4.5497,0,4.5248,4.5315,4.5294,4.5361,4.5389,4.535,4.5383,4.5389,4.5381,4.5403,4.5394,4.542,4.538,4.5385,4.5412,4.5404,4.5453,4.5397,4.5426,4.5428,4.5425,4.5552,4.5576,4.5664,4.5509,4.5511,4.5513,0,4.5368,4.5384,4.5454,4.5453,4.5464,4.5495,4.5511,4.5533,4.5538,4.5531,4.5541,4.5516,4.5553,4.5504,4.5554,4.5516,4.5527,4.5525,4.5528,4.5528,4.5474,4.5554,4.5692,4.5705,4.5531,4.553,4.5528,0,4.5462,4.5501,4.5547,4.5554,4.5554,4.5576,4.5577,4.558,4.5593,4.5607,4.5615,4.5633,4.5642,4.5656,4.5636,4.5603,4.5688,4.5639,4.5682,4.5682,4.57,4.5699,4.584,4.5711,4.571,4.571,4.571,0,4.557,4.5614,4.5589,4.5618,4.5666,4.5641,4.5689,4.5686,4.5689,4.5715,4.5682,4.5707,4.568,4.5703,4.5687,4.573,4.5735,4.5729,4.5724,4.5731,4.5732,4.5737,4.5729,4.5714,4.5713,4.5712,4.5711,0,4.5682,4.5667,4.5715,4.5712,4.5712,4.5748,4.5744,4.577,4.5761,4.5794,4.5801,4.5786,4.5811,4.5793,4.5817,4.5807,4.5863,4.585,4.5861,4.5857,4.5901,4.5897,4.6049,4.6067,4.5927,4.5929,4.593,0,4.5751,4.5784,4.5784,4.58,4.5803,4.5829,4.5842,4.582,4.5834,4.5843,4.5868,4.589,4.5906,4.5948,4.5938,4.5957,4.5943,4.5996,4.5946,4.5952,4.5942,4.594,4.5942,4.6005,4.6007,4.6008,4.6009,0,4.5874,4.5865,4.5886,4.5905,4.5922,4.5935,4.5945,4.596,4.5937,4.5955,4.598,4.5993,4.6019,4.6041,4.6056,4.6056,4.6028,4.6025,4.6036,4.6042,4.6047,4.6044,4.5887,4.6021,4.602,4.6019,4.6018,4.6018,4.5965,4.5992,4.5997,4.6021,4.6027,4.6037,4.6061,4.6055,4.6076,4.6095,4.6081,4.6111,4.6115,4.6133,4.6136,4.6159,4.6137,4.6153,4.6157,4.616,4.6166,4.6045,4.6161,4.6161,4.6161,4.616,4.616,0,4.6085,4.6086,4.6109,4.6125,4.6144,4.6118,4.6128,4.6145,4.6172,4.6179,4.6196,4.6225,4.6246,4.6239,4.6258,4.6277,4.6265,4.6283,4.628,4.6281,4.6185,4.6173,4.6292,4.6292,4.6292,4.6292,4.6292,4.6292,4.615,4.6194,4.6186,4.6233,4.6233,4.6263,4.6271,4.628,4.6285,4.6319,4.6337,4.6333,4.6333,4.6352,4.637,4.6368,4.6375,4.6397,4.639,4.63,4.6287,4.6275,4.6263,4.64,4.64,4.6483,4.6484,4.6485]}]]